Location: Golden Pond Observatory
(36.7773°N, 88.0631°W)
Time: 08:14:25
(UTC-06:00)

Hubble Space Telescope - Pass Details

Date: 26 November 2019
Orbit: 536 x 540 km, 28.5° (Epoch: 06 December)

Event Time Altitude Azimuth Distance (km) Brightness Sun altitude
Rises 18:50:24 0° 255° (WSW) 2,669 5.6 -26.2°
Reaches altitude 10° 18:53:35 10° 229° (SW) 1,777 4.1 -26.9°
Maximum altitude 18:55:43 14° 198° (SSW) 1,545 3.3 -27.3°
Enters shadow 18:56:04 14° 192° (SSW) 1,552 3.3 -27.4°
